CW0880 Weather Reports


time (UTC)temp
C
wind
direction
speed
KPH
gust
KPH
rain 1hr
cm
rain 24hr
cm
rain mn
cm
humidity
%
barometer
mb
20260905142455 25 267 3.2 8.0 0.00 0.00 0.00 60 1010.3
20260905140954 25 9 6.4 11.3 0.00 0.00 0.00 61 1010.5
20260905135449 24 332 11.3 12.9 0.00 0.00 0.00 61 1010.3
20260905133948 25 322 9.7 9.7 0.00 0.00 0.00 60 1010.3
20260905132444 23 29 4.8 12.9 0.00 0.00 0.00 62 1010.3
20260905130941 23 321 6.4 12.9 0.00 0.00 0.00 64 1010.5
20260905125441 23 327 6.4 19.3 0.00 0.00 0.00 64 1010.5
20260905123940 23 4 11.3 11.3 0.00 0.00 0.00 64 1010.8
20260905122436 23 271 8.0 17.7 0.00 0.00 0.00 64 1011.0
20260905120932 23 29 6.4 12.9 0.00 0.00 0.00 64 1010.9
20260905115427 23 309 1.6 11.3 0.00 0.00 0.00 63 1011.0
20260905113927 22 4 9.7 9.7 0.00 0.00 0.00 65 1010.6
20260905112424 22 327 4.8 14.5 0.00 0.00 0.00 64 1010.6
20260905110920 22 16 6.4 8.0 0.00 0.00 0.00 64 1010.5
20260905105414 22 139 3.2 12.9 0.00 0.00 0.00 65 1010.2
20260905103909 22 6 6.4 9.7 0.00 0.00 0.00 65 1009.9
20260905102409 22 5 3.2 11.3 0.00 0.00 0.00 64 1009.8
20260905100908 22 63 3.2 6.4 0.00 0.00 0.00 64 1009.8
20260905095404 23 350 4.8 6.4 0.00 0.00 0.00 64 1009.9
20260905093904 23 354 4.8 9.7 0.00 0.00 0.00 64 1009.8
20260905092402 23 356 3.2 14.5 0.00 0.00 0.00 63 1009.6
20260905090901 23 4 6.4 8.0 0.00 0.00 0.00 62 1009.7
20260905085356 23 6 6.4 14.5 0.00 0.00 0.00 61 1009.7
20260905083852 23 326 6.4 12.9 0.00 0.00 0.00 61 1009.7
20260905082351 23 311 4.8 6.4 0.00 0.00 0.00 60 1009.6
20260905080852 23 27 4.8 11.3 0.00 0.00 0.00 60 1009.5
20260905075351 23 325 4.8 9.7 0.00 0.00 0.00 60 1009.7
20260905073847 24 328 9.7 11.3 0.00 0.00 0.00 58 1009.7
20260905072344 24 34 12.9 14.5 0.00 0.00 0.00 58 1009.7
20260905070842 24 36 12.9 16.1 0.00 0.00 0.00 57 1009.9
20260905065342 24 340 9.7 20.9 0.00 0.00 0.00 57 1009.8
20260905063838 25 333 3.2 9.7 0.00 0.00 0.00 59 1009.8
20260905062336 24 40 3.2 8.0 0.00 0.00 0.00 61 1009.9
20260905060831 25 32 12.9 14.5 0.00 0.00 0.00 60 1009.8
20260905055328 25 347 6.4 6.4 0.00 0.00 0.00 59 1010.1
20260905053823 25 13 6.4 6.4 0.00 0.00 0.00 59 1010.3
20260905052319 25 329 11.3 16.1 0.00 0.00 0.00 58 1010.4
20260905050817 25 355 3.2 11.3 0.00 0.00 0.00 58 1010.6
20260905045315 25 9 0.0 9.7 0.00 0.00 0.00 59 1010.5
20260905043815 25 333 6.4 11.3 0.00 0.00 0.00 59 1010.6
20260905042310 25 305 6.4 19.3 0.00 0.00 0.00 59 1010.4
20260905040808 25 3 8.0 9.7 0.00 0.00 0.00 61 1010.8
20260905035306 25 336 3.2 9.7 0.00 0.03 0.03 61 1010.7
20260905033758 26 347 6.4 11.3 0.00 0.03 0.03 60 1010.5
20260905032255 26 85 6.4 6.4 0.00 0.03 0.03 60 1010.5
20260905030752 26 350 6.4 17.7 0.00 0.03 0.03 60 1010.6
20260905025249 26 40 1.6 17.7 0.00 0.03 0.03 58 1010.5
20260905023747 26 316 3.2 17.7 0.00 0.03 0.03 58 1010.4
20260905022242 26 17 3.2 11.3 0.00 0.03 0.03 59 1010.5
20260905020737 26 4 4.8 9.7 0.00 0.03 0.03 59 1010.5
20260905015232 26 311 6.4 9.7 0.00 0.03 0.03 58 1010.7
20260905013728 26 281 1.6 6.4 0.00 0.03 0.03 58 1010.4
20260905012227 27 2 6.4 6.4 0.00 0.03 0.03 56 1010.7
20260905010725 27 325 3.2 16.1 0.00 0.03 0.03 56 1010.5
20260905005224 27 349 8.0 12.9 0.00 0.03 0.03 56 1010.5
20260905003720 27 33 3.2 9.7 0.00 0.03 0.03 56 1010.5
20260905002217 27 22 8.0 11.3 0.00 0.03 0.03 55 1010.4
20260905000712 27 348 6.4 12.9 0.00 0.03 0.03 55 1010.4
20260904235208 27 303 6.4 6.4 0.00 0.03 0.03 55 1010.1
20260904233706 28 330 3.2 6.4 0.00 0.03 0.03 55 1010.1
20260904232206 28 355 6.4 16.1 0.00 0.03 0.03 55 1009.9
20260904230702 28 319 6.4 12.9 0.00 0.03 0.03 53 1010.0
20260904225202 28 357 6.4 11.3 0.00 0.03 0.03 51 1009.9
20260904223702 28 9 17.7 19.3 0.00 0.03 0.03 51 1009.9
20260904222200 29 12 8.0 14.5 0.00 0.03 0.03 50 1009.8
20260904220701 30 14 11.3 11.3 0.00 0.03 0.03 47 1009.6
20260904215158 31 325 6.4 6.4 0.00 0.03 0.03 46 1009.8
20260904213657 31 329 3.2 11.3 0.00 0.03 0.03 47 1009.6
20260904212155 30 112 6.4 14.5 0.00 0.03 0.03 47 1009.5
20260904210651 31 55 3.2 12.9 0.00 0.03 0.03 46 1009.5
20260904205149 31 83 1.6 17.7 0.00 0.03 0.03 48 1009.7
20260904203649 31 167 1.6 11.3 0.00 0.03 0.03 47 1009.8
20260904202143 31 359 9.7 16.1 0.00 0.03 0.03 48 1009.9
20260904200643 30 270 6.4 19.3 0.00 0.03 0.03 49 1010.0
20260904195143 31 326 8.0 17.7 0.00 0.03 0.03 48 1010.5
20260904193638 31 281 8.0 16.1 0.00 0.03 0.03 48 1010.4
20260904192136 30 329 3.2 17.7 0.00 0.03 0.03 48 1010.5
20260904190637 30 322 4.8 16.1 0.00 0.03 0.03 49 1010.7
20260904185135 30 315 8.0 17.7 0.00 0.03 0.03 49 1010.9
20260904183631 30 3 17.7 25.7 0.00 0.03 0.03 51 1010.8
20260904182127 29 350 3.2 20.9 0.00 0.03 0.03 50 1010.9
20260904180624 30 337 14.5 20.9 0.00 0.03 0.03 49 1011.0
20260904175123 30 305 4.8 19.3 0.00 0.03 0.03 49 1010.9
20260904173621 30 342 8.0 17.7 0.00 0.03 0.03 51 1010.8
20260904172117 30 323 14.5 24.1 0.00 0.03 0.03 50 1010.5
20260904170616 30 348 8.0 17.7 0.00 0.03 0.03 52 1011.1
20260904165115 30 271 1.6 9.7 0.00 0.03 0.03 52 1011.0
20260904163612 30 326 6.4 16.1 0.00 0.03 0.03 53 1011.0
20260904162108 30 3 6.4 17.7 0.00 0.03 0.03 52 1011.1
20260904160606 30 307 24.1 25.7 0.00 0.03 0.03 52 1011.1
20260904155101 29 344 11.3 20.9 0.00 0.03 0.03 54 1011.2
20260904153601 28 349 12.9 27.4 0.00 0.03 0.03 54 1011.7
20260904152100 29 338 19.3 20.9 0.00 0.03 0.03 56 1011.5
20260904150555 29 24 16.1 20.9 0.00 0.03 0.03 57 1011.7
20260904145050 28 287 3.2 9.7 0.00 0.03 0.03 59 1011.6